Mullan, ID

4:21 AM PDT on August 26, 2016 (GMT -0700)
Mullan Pass

Weather History for KMLP - November, 2012

Change the Weather History Date:

Thursday, November 1, 2012

  Actual Average (K3TH) Record (K3TH)
Temperature  
Mean Temperature 36 °F -  
Max Temperature 41 °F 45 °F 52 °F (1997)
Min Temperature 32 °F 32 °F 25 °F (1996)
Degree Days  
Heating Degree Days 28    
Moisture  
Dew Point 35 °F    
Average Humidity 97    
Maximum Humidity 100    
Minimum Humidity 76    
Precipitation  
Precipitation 0.13 in - - ()
Sea Level Pressure  
Sea Level Pressure 29.85 in    
Wind  
Wind Speed 5 mph (SW)    
Max Wind Speed 10 mph    
Max Gust Speed 22 mph    
Visibility 6 miles    
Events Fog , Rain , Snow    
Averages and records for this station are not official NWS values.
T = Trace of Precipitation, MM = Missing Value Source: NWS Daily Summary

Daily Weather History Graph

Daily Weather History Graph

Search for Another Location

Airport or City:

Trip Planner

Search our weather history database for the weather conditions in past years. The results will help you decide how hot, cold, wet, or windy it might be!

Date:

Astronomy

Nov. 01, 2012 Rise Set
Actual Time 7:27 AM PDT 5:24 PM PDT
Civil Twilight 6:55 AM PDT 5:56 PM PDT
Nautical Twilight 6:18 AM PDT 6:33 PM PDT
Astronomical Twilight 5:43 AM PDT 7:08 PM PDT
Moon 7:16 PM PDT (11/1) 10:12 AM PDT (11/1)
Length of Visible Light 11h 01m
Length of Day
9h 57m
Waning Gibbous, 92% of the Moon is Illuminated
Nov 1
Waning Gibbous
Nov 6
Last Quarter
Nov 13
New
Nov 20
First Quarter
Nov 28
Full

Hourly Weather History & Observations

Time (PDT) Temp. Windchill Dew Point Humidity Pressure Visibility Wind Dir Wind Speed Gust Speed Precip Events Conditions
12:53 AM 41.0 °F 34.7 °F 34.0 °F 76% 29.70 in 10.0 mi SSW 10.4 mph 21.9 mph 0.00 in Rain Light Rain
1:53 AM 39.0 °F 33.4 °F 37.0 °F 93% 29.70 in 10.0 mi SSW 8.1 mph 21.9 mph 0.02 in Rain Light Rain
2:12 AM 37.4 °F 32.8 °F 37.4 °F 100% 29.87 in 10.0 mi SW 5.8 mph - 0.00 in Rain Light Rain
2:26 AM 37.4 °F 32.8 °F 37.4 °F 100% 29.87 in 10.0 mi SW 5.8 mph - 0.00 in Rain Light Rain
2:53 AM 37.0 °F 31.6 °F 37.0 °F 100% 29.70 in 10.0 mi Variable 6.9 mph - 0.01 in Rain Light Rain
3:19 AM 37.4 °F 32.8 °F 37.4 °F 100% 29.86 in 10.0 mi WSW 5.8 mph - 0.00 in Rain Light Rain
3:53 AM 37.0 °F 33.3 °F 36.0 °F 96% 29.73 in 10.0 mi Variable 4.6 mph - 0.00 in   Mostly Cloudy
4:53 AM 37.0 °F 33.3 °F 36.0 °F 96% 29.73 in 10.0 mi SW 4.6 mph - N/A   Mostly Cloudy
5:38 AM 37.4 °F 34.9 °F 35.6 °F 93% 29.86 in 10.0 mi Variable 3.5 mph - 0.00 in Rain Light Rain
5:53 AM 37.9 °F 34.4 °F 36.0 °F 93% 29.73 in 10.0 mi SW 4.6 mph - 0.00 in Rain Light Rain
6:53 AM 37.9 °F 35.5 °F 36.0 °F 93% 29.69 in 10.0 mi Variable 3.5 mph - 0.00 in   Mostly Cloudy
7:53 AM 37.9 °F - 36.0 °F 93% 29.70 in 10.0 mi Calm Calm - N/A   Mostly Cloudy
8:07 AM 37.4 °F 34.9 °F 35.6 °F 93% 29.87 in 10.0 mi Variable 3.5 mph - N/A   Overcast
8:28 AM 37.4 °F 34.9 °F 35.6 °F 93% 29.87 in 10.0 mi Variable 3.5 mph - N/A   Overcast
8:32 AM 37.4 °F 34.9 °F 35.6 °F 93% 29.87 in 10.0 mi Variable 3.5 mph - N/A   Overcast
8:40 AM 37.4 °F 34.9 °F 35.6 °F 93% 29.87 in 10.0 mi Variable 3.5 mph - N/A   Overcast
8:53 AM 37.9 °F - 36.0 °F 93% 29.70 in 10.0 mi Calm Calm - N/A   Overcast
9:16 AM 37.4 °F 34.9 °F 37.4 °F 100% 29.86 in 9.0 mi Variable 3.5 mph - 0.00 in Rain Light Rain
9:25 AM 37.4 °F 34.9 °F 37.4 °F 100% 29.86 in 2.5 mi Variable 3.5 mph - 0.02 in Rain Rain
9:30 AM 37.4 °F 31.4 °F 35.6 °F 93% 29.86 in 1.8 mi SW 8.1 mph - 0.04 in Rain Heavy Rain
9:35 AM 35.6 °F 31.7 °F 35.6 °F 100% 29.87 in 1.5 mi WSW 4.6 mph - 0.06 in Rain Light Rain
9:39 AM 35.6 °F 32.8 °F 35.6 °F 100% 29.87 in 0.8 mi Variable 3.5 mph - 0.07 in Rain Rain
9:47 AM 35.6 °F 32.8 °F 35.6 °F 100% 29.87 in 1.0 mi Variable 3.5 mph - 0.08 in Rain Light Rain
9:51 AM 35.6 °F - 35.6 °F 100% 29.87 in 2.0 mi Calm Calm - 0.08 in Rain Light Rain
9:53 AM 36.0 °F 33.3 °F 36.0 °F 100% 29.75 in 1.8 mi Variable 3.5 mph - 0.08 in Rain Light Rain
9:57 AM 35.6 °F 32.8 °F 35.6 °F 100% 29.88 in 0.8 mi Variable 3.5 mph - 0.00 in   Overcast
10:13 AM 35.6 °F 30.7 °F 35.6 °F 100% 29.87 in 2.0 mi Variable 5.8 mph - 0.00 in   Overcast
10:19 AM 35.6 °F 31.7 °F 35.6 °F 100% 29.87 in 8.0 mi SW 4.6 mph - 0.00 in   Overcast
10:46 AM 37.4 °F 34.9 °F 35.6 °F 93% 29.87 in 10.0 mi Variable 3.5 mph - 0.00 in   Overcast
10:53 AM 37.0 °F - 37.0 °F 100% 29.72 in 10.0 mi Calm Calm - 0.00 in   Overcast
11:05 AM 37.4 °F - 37.4 °F 100% 29.88 in 2.5 mi Calm Calm - N/A   Overcast
11:13 AM 39.2 °F 35.9 °F 37.4 °F 93% 29.88 in 4.0 mi Variable 4.6 mph - N/A   Overcast
11:53 AM 37.0 °F 32.4 °F 35.1 °F 93% 29.75 in 10.0 mi Variable 5.8 mph - N/A   Overcast
12:02 PM 37.4 °F 34.9 °F 35.6 °F 93% 29.89 in 1.8 mi Variable 3.5 mph - N/A   Overcast
12:10 PM 37.4 °F 32.8 °F 35.6 °F 93% 29.88 in 4.0 mi Variable 5.8 mph - N/A   Overcast
12:39 PM 35.6 °F 29.9 °F 35.6 °F 100% 29.88 in 10.0 mi Variable 6.9 mph - 0.00 in Rain Light Rain
12:53 PM 37.0 °F 33.3 °F 34.0 °F 89% 29.75 in 10.0 mi Variable 4.6 mph - 0.00 in   Overcast
1:53 PM 37.0 °F - 33.1 °F 86% 29.75 in 10.0 mi Calm Calm - N/A   Overcast
2:26 PM 35.6 °F 31.7 °F 33.8 °F 93% 29.89 in 8.0 mi Variable 4.6 mph - 0.00 in Rain Light Rain
2:43 PM 33.8 °F 28.6 °F 33.8 °F 100% 29.89 in 3.0 mi Variable 5.8 mph - 0.01 in Snow Light Snow
2:47 PM 33.8 °F 28.6 °F 32.0 °F 93% 29.89 in 1.8 mi Variable 5.8 mph - 0.01 in Snow Light Snow
2:53 PM 34.0 °F 28.0 °F 32.0 °F 92% 29.78 in 1.5 mi Variable 6.9 mph - 0.01 in Snow Light Snow
2:59 PM 33.8 °F 29.6 °F 33.8 °F 100% 29.89 in 3.0 mi Variable 4.6 mph - 0.00 in Snow Light Snow
3:11 PM 33.8 °F - 33.8 °F 100% 29.89 in 10.0 mi Calm Calm - 0.00 in   Overcast
3:53 PM 35.1 °F 31.0 °F 34.0 °F 96% 29.79 in 10.0 mi SSW 4.6 mph - 0.00 in   Overcast
4:11 PM 35.6 °F 30.7 °F 33.8 °F 93% 29.90 in 10.0 mi Variable 5.8 mph - N/A   Overcast
4:53 PM 34.0 °F 28.8 °F 34.0 °F 100% 29.79 in 10.0 mi WSW 5.8 mph - N/A   Overcast
5:24 PM 33.8 °F 27.0 °F 33.8 °F 100% 29.91 in 10.0 mi SW 8.1 mph - N/A   Overcast
5:53 PM 34.0 °F 27.2 °F 33.1 °F 96% 29.81 in 10.0 mi WSW 8.1 mph - N/A   Overcast
6:09 PM 33.8 °F 29.6 °F 33.8 °F 100% 29.92 in 10.0 mi SW 4.6 mph - 0.00 in Rain Light Rain
6:33 PM 33.8 °F 28.6 °F 33.8 °F 100% 29.93 in 1.8 mi Variable 5.8 mph - 0.00 in   Overcast
6:48 PM 33.8 °F 30.8 °F 33.8 °F 100% 29.94 in 0.2 mi Variable 3.5 mph - 0.00 in Fog Fog
6:53 PM 33.1 °F 28.7 °F 33.1 °F 100% 29.83 in 0.2 mi Variable 4.6 mph - 0.00 in Fog , Snow Light Snow
7:19 PM 33.8 °F 27.7 °F 33.8 °F 100% 29.94 in 0.8 mi Variable 6.9 mph - 0.00 in   Mist
7:27 PM 33.8 °F 27.7 °F 33.8 °F 100% 29.94 in 1.5 mi SW 6.9 mph - 0.00 in   Overcast
7:35 PM 33.8 °F 29.6 °F 33.8 °F 100% 29.94 in 1.0 mi Variable 4.6 mph - 0.00 in   Mist
7:44 PM 33.8 °F 29.6 °F 33.8 °F 100% 29.94 in 0.5 mi Variable 4.6 mph - 0.00 in Fog Fog
7:53 PM 33.1 °F 26.9 °F 33.1 °F 100% 29.83 in 0.2 mi SW 6.9 mph - 0.00 in Fog Fog
8:31 PM 33.8 °F 29.6 °F 33.8 °F 100% 29.95 in 0.2 mi Variable 4.6 mph - 0.00 in Fog Fog
8:53 PM 33.1 °F 28.7 °F 33.1 °F 100% 29.84 in 0.2 mi WSW 4.6 mph - 0.00 in Fog Fog
9:53 PM 33.1 °F 28.7 °F 33.1 °F 100% 29.88 in 0.2 mi WNW 4.6 mph - 0.00 in Fog Fog
10:01 PM 33.8 °F 28.6 °F 33.8 °F 100% 29.97 in 0.5 mi Variable 5.8 mph - N/A Fog Fog
10:30 PM 32.0 °F 27.5 °F 32.0 °F 100% 29.98 in 0.2 mi WSW 4.6 mph - 0.01 in Fog , Snow Light Snow
10:53 PM 32.0 °F 28.7 °F 32.0 °F 100% 29.89 in 0.2 mi Variable 3.5 mph - 0.01 in Fog , Snow Light Snow
11:48 PM 33.8 °F - 33.8 °F 100% 30.01 in 0.5 mi Calm Calm - 0.00 in Fog Fog
11:53 PM 33.1 °F 30.0 °F 33.1 °F 100% 29.91 in 0.2 mi Variable 3.5 mph - 0.00 in Fog Fog